SCP
0 0 0 0 0 0 0 0 0 0 0 0 0 0 0 0 0 0 0 0 0 0 0 0 0 0 0 0 0 0 0 0 0 0 0 0 0 0 0 0 0 0 0
0 0 0 0 0 0 0 0 0 0 0 0 0 0 0 0 0 0 0 0 0 0 0 0 0 0 0 0 0 0 0 0 0 0 0 0 0 0 0 0 0 0 0
0 0 0 0 0 0 0 0 0 0 0 0 0 0 0 0 0 0 0 0 0 0 0 0 0 0 0 0 0 0 0 0 0 0 0 0 0 0 0 0 0 0 0
0 0 0 0 0 0 0 0 0 0 0 0 0 0 0 0 0 0 0 0 0 0 0 0 0 0 0 0 0 0 0 0 0 0 0 0 0 0 0 0 0 0 0
0 0 0 0 0 0 0 0 0 0 0 0 0 0 0 0 0 0 0 0 0 0 0 0 0 0 0 0 0 0 0 0 0 0 0 0 0 0 0 0 0 0 0
0 0 0 0 0 0 0 0 0 0 0 0 0 0 0 0 0 0 0 0 0 0 0 0 0 0 0 0 0 0 0 0 0 0 0 0 0 0 0 0 0 0 0
0 0 0 0 0 0 0 0 0 0 0 0 0 0 0 0 0 0 0 0 0 0 0 0 0 0 0 0 0 0 0 0 0 0 0 0 0 0 0 0 0 0 0
0 0 0 0 0 0 0 0 0 0 0 0 0 0 0 0 0 0 0 0 0 0 0 0 0 0 0 0 0 0 0 0 0 0 0 0 0 0 0 0 0 0 0
0 0 0 0 0 0 0 0 0 0 0 0 0 0 0 0 0 0 0 0 0 0 0 0 0 0 0 0 0 0 0 0 0 0 0 0 0 0 0 0 0 0 0
0 0 0 0 0 0 0 0 0 0 0 0 0 0 0 0 0 0 0 0 0 0 0 0 0 0 0 0 0 0 0 0 0 0 0 0 0 0 0 0 0 0 0
0 0 0 0 0 0 0 0 0 0 0 0 0 0 0 0 0 0 0 0 0 0 0 0 0 0 0 0 0 0 0 0 0 0 0 0 0 0 0 0 0 0 0
0 0 0 0 0 0 0 0 0 0 0 0 0 0 0 0 0 0 0 0 0 0 0 0 0 0 0 0 0 0 0 0 0 0 0 0 0 0 0 0 0 0 0
0 0 0 0 0 0 0 0 0 0 0 0 0 0 0 0 0 0 0 0 0 0 0 0 0 0 0 0 0 0 0 0 0 0 0 0 0 0 0 0 0 0 0
0 0 0 0 0 0 0 0 0 0 0 0 0 0 0 0 0 0 0 0 0 0 0 0 0 0 0 0 0 0 0 0 0 0 0 0 0 0 0 0 0 0 0
0 0 0 0 0 0 0 0 0 0 0 0 0 0 0 0 0 0 0 0 0 0 0 0 0 0 0 0 0 0 0 0 0 0 0 0 0 0 0 0 0 0 0
0 0 0 0 0 0 0 0 0 0 0 0 0 0 0 0 0 0 0 0 0 0 0 0 0 0 0 0 0 0 0 0 0 0 0 0 0 0 0 0 0 0 0
0 0 0 0 0 0 0 0 0 0 0 0 0 0 0 0 0 0 0 0 0 0 0 0 0 0 0 0 0 0 0 0 0 0 0 0 0 0 0 0 0 0 0
0 0 0 0 0 0 0 0 0 0 0 0 0 0 0 0 0 0 0 0 0 0 0 0 0 0 0 0 0 0 0 0 0 0 0 0 0 0 0 0 0 0 0
0 0 0 0 0 0 0 0 0 0 0 0 0 0 0 0 0 0 0 0 0 0 0 0 0 0 0 0 0 0 0 0 0 0 0 0 0 0 0 0 0 0 0
0 0 0 0 0 0 0 0 0 0 0 0 0 0 0 0 0 0 0 0 0 0 0 0 0 0 0 0 0 0 0 0 0 0 0 0 0 0 0 0 0 0 0
0 0 0 0 0 0 0 0 0 0 0 0 0 0 0 0 0 0 0 0 0 0 0 0 0 0 0 0 0 0 0 0 0 0 0 0 0 0 0 0 0 0 0
0 0 0 0 0 0 0 0 0 0 0 0 0 0 0 0 0 0 0 0 0 0 0 0 0 0 0 0 0 0 0 0 0 0 0 0 0 0 0 0 0 0 0
0 0 0 0 0 0 0 0 0 0 0 0 0 0 0 0 0 0 0 0 0 0 0 0 0 0 0 0 0 0 0 0 0 0 0 0 0 0 0 0 0 0 0
0 0 0 0 0 0 0 0 0 0 0 0 0 0 0 0 0 0 0 0 0 0 0 0 0 0 0 0 0 0 0 0 0 0 0 0 0 0 0 0 0 0 0
0 0 0 0 0 0 0 0 0 0 0 0 0 0 0 0 0 0 0 0 0 0 0 0 0 0 0 0 0 0 0 0 0 0 0 0 0 0 0 0 0 0 0
0 0 0 0 0 0 0 0 0 0 0 0 0 0 0 0 0 0 0 0 0 0 0 0 0 0 0 0 0 0 0 0 0 0 0 0 0 0 0 0 0 0 0
Wind_Speed
5 5 11 11 11 10 10 11 11 11 12 13 14 14 15 15 15 15 15 16 16 17 17 18 19 19 19 19 19 20 20 20 20 20 20 20 20 21 21 20 18 14 23
8 7 11 11 11 11 10 11 11 11 12 13 14 14 15 15 15 16 15 15 16 17 18 18 18 18 18 18 19 19 19 19 20 19 18 16 19 21 21 21 20 15 22
10 8 10 11 11 11 11 11 11 11 12 12 14 14 14 15 15 15 15 15 15 17 17 18 18 18 18 18 18 19 19 19 19 18 16 8 12 21 21 21 21 22 22
10 8 8 11 12 12 11 11 10 11 12 13 13 14 14 15 15 15 15 15 15 16 17 17 18 18 17 18 18 18 18 18 18 16 9 7 9 19 21 21 21 21 21
9 7 9 11 12 12 11 11 11 11 12 12 13 14 14 14 14 14 14 14 15 15 16 17 17 18 17 18 18 18 18 18 17 12 7 7 8 18 20 21 21 21 21
8 7 9 12 12 12 12 11 11 12 12 12 13 13 14 14 14 14 14 14 14 15 15 16 17 17 17 17 18 18 17 17 12 7 7 7 7 17 20 20 20 20 20
8 6 8 11 11 12 12 11 11 11 12 12 12 13 13 13 13 13 13 13 14 14 15 16 17 17 17 17 17 17 16 16 9 7 7 6 10 18 19 19 20 20 20
10 7 6 10 10 10 10 10 11 11 11 12 12 12 13 13 13 13 13 13 13 14 14 15 16 16 16 16 16 16 15 13 9 7 6 6 14 18 19 19 19 19 19
8 7 6 6 7 9 9 9 9 10 10 11 11 11 11 12 12 11 11 12 13 13 14 15 16 16 16 16 16 15 15 14 8 5 6 6 14 17 18 18 18 18 19
7 7 6 6 5 5 6 8 9 9 9 10 11 10 11 11 11 10 9 11 13 13 14 15 16 16 15 15 15 15 14 11 6 6 4 7 15 17 17 18 17 17 18
9 7 7 6 6 5 5 7 7 8 9 10 9 11 9 6 6 6 8 10 12 13 14 15 15 15 14 14 14 14 10 4 5 4 4 11 15 16 16 16 16 16 16
13 11 9 8 7 6 5 5 4 4 5 5 5 6 5 4 4 5 9 10 11 12 13 15 15 12 9 5 8 10 4 6 5 4 5 12 14 15 15 15 15 15 15
12 12 11 10 8 7 5 5 3 3 4 4 6 6 5 4 4 4 3 5 6 8 6 8 8 5 5 4 5 5 5 5 4 4 5 11 13 14 14 14 14 14 14
11 13 12 11 9 8 6 6 5 4 4 4 5 6 5 4 4 3 3 3 4 3 5 4 4 5 6 6 6 6 6 4 4 3 5 9 11 12 13 13 13 13 13
13 13 13 12 12 10 8 6 6 6 5 5 5 5 6 5 5 4 3 3 4 4 4 5 5 6 6 6 6 6 6 6 5 5 4 8 9 10 11 11 12 12 12
14 14 13 13 13 11 10 8 7 6 6 5 5 6 7 6 6 6 5 4 4 4 4 4 5 5 5 5 6 6 5 5 5 5 4 5 8 8 9 10 10 10 11
12 12 13 13 13 13 12 10 7 7 7 7 6 7 8 7 7 6 6 5 5 5 6 5 6 5 5 5 6 5 5 5 4 5 4 4 4 7 7 7 8 9 9
9 10 12 11 13 14 12 10 7 7 7 7 7 7 9 9 8 7 6 6 6 6 6 6 5 5 4 4 4 4 3 3 4 4 4 4 3 3 4 6 5 6 7
11 11 12 14 14 14 12 9 8 7 8 7 7 7 9 10 10 8 7 6 8 6 6 6 4 4 5 4 4 3 3 3 3 3 3 3 3 3 3 3 5 3 4
9 10 12 13 14 13 10 8 7 8 8 7 8 9 10 10 11 9 7 9 9 7 6 6 6 4 4 6 5 3 2 2 1 1 1 1 1 2 2 2 2 2 1
8 10 12 14 14 12 10 10 10 10 9 8 8 10 11 11 12 11 8 10 10 9 9 10 7 7 4 4 4 2 1 1 1 1 1 1 1 0 0 1 1 1 1
9 11 12 13 13 14 12 10 7 6 6 7 7 10 12 12 13 11 11 10 11 9 10 11 9 6 5 6 5 3 1 3 4 3 2 3 3 2 2 2 1 1 0
7 9 10 12 13 13 11 6 4 4 3 6 8 9 11 12 13 13 14 12 12 11 11 13 13 12 8 7 4 5 5 6 2 2 5 5 4 4 3 3 3 2 2
7 6 7 8 10 10 11 9 10 9 9 9 7 7 9 11 12 12 13 13 13 11 12 12 12 8 8 8 5 4 2 3 4 3 3 4 6 7 7 5 5 4 4
3 3 4 5 6 7 9 11 12 11 8 4 4 7 8 9 10 11 11 12 12 11 12 13 13 11 9 8 7 5 3 1 1 3 4 3 4 7 7 7 5 5 5
0 1 1 3 4 4 7 9 10 10 7 6 6 7 6 5 6 9 10 10 11 10 12 13 13 14 12 9 7 6 6 6 6 6 6 4 5 4 6 6 7 7 6
Wind_Direction
161 163 147 139 132 125 118 111 105 102 100 97 95 93 91 88 86 84 82 81 80 79 77 76 75 73 72 71 70 69 68 66 65 65 67 70 72 72 71 68 65 63 68
147 153 145 141 135 129 123 117 111 107 103 101 98 96 94 91 89 87 85 84 83 81 80 79 78 77 75 75 74 73 72 70 68 66 64 64 71 72 72 71 71 71 70
139 143 141 140 138 134 128 121 117 113 108 104 102 100 97 95 92 90 88 87 86 84 82 81 81 80 79 78 77 76 75 72 69 65 59 48 68 74 74 72 72 72 72
140 139 141 141 141 138 134 127 121 117 113 108 105 103 101 98 95 93 91 90 88 86 85 85 85 83 82 81 80 78 76 73 69 65 52 47 63 75 74 72 72 71 72
136 136 143 145 146 143 139 132 123 118 116 113 109 106 103 100 98 96 93 91 90 88 88 88 88 87 85 84 82 80 77 73 68 58 48 51 62 77 76 74 72 71 70
136 136 147 150 150 146 142 135 128 123 120 117 112 109 106 104 102 100 97 94 92 91 90 90 90 89 88 86 84 82 79 74 60 47 49 53 65 80 80 78 76 74 72
142 140 152 153 152 149 146 141 134 128 125 121 117 114 112 110 107 105 101 98 96 94 93 94 94 92 90 87 84 80 77 73 61 50 51 57 74 81 81 79 78 76 74
149 145 151 154 152 151 149 144 139 134 130 126 123 121 119 116 113 109 106 103 100 97 97 97 97 95 91 86 82 77 72 68 62 55 55 65 83 83 82 80 78 77 76
148 147 149 150 153 152 149 144 141 136 133 130 126 121 118 116 114 110 108 107 103 101 100 99 98 96 92 88 84 78 73 69 56 51 58 66 84 84 83 82 80 79 78
156 157 154 151 149 147 146 146 142 137 133 127 120 114 111 110 109 107 105 109 108 106 103 101 99 96 92 89 84 78 71 63 53 52 52 77 84 86 85 83 82 80 80
175 174 167 162 156 150 147 148 142 137 132 125 118 115 107 100 100 103 111 112 112 110 107 104 100 95 89 84 80 76 67 52 53 51 61 86 89 88 86 85 84 83 82
187 186 182 177 169 159 155 143 138 133 129 123 122 118 111 109 107 107 108 106 105 105 106 105 98 90 80 67 68 68 57 54 51 45 74 91 93 91 90 88 87 87 86
189 189 189 185 179 172 161 155 149 138 132 131 133 129 121 112 107 98 95 92 87 85 83 89 84 75 74 72 68 62 58 56 49 44 62 89 97 97 95 94 93 92 91
190 195 192 189 186 182 172 169 164 160 156 154 152 145 138 132 127 123 109 103 92 94 99 91 92 88 81 74 73 70 62 58 51 44 52 75 96 103 102 101 99 97 95
198 198 196 192 192 187 180 179 178 176 174 165 158 160 155 151 150 140 128 117 112 112 114 111 105 99 90 79 71 71 67 60 55 49 41 58 79 100 108 108 107 104 101
204 201 197 197 195 191 190 188 186 183 175 169 172 172 166 161 159 154 145 137 133 128 123 118 116 106 93 87 77 69 66 61 56 53 41 41 57 78 104 112 113 112 110
205 201 199 199 197 196 196 193 189 185 179 182 182 177 175 170 167 163 157 152 145 133 123 114 107 101 99 92 81 69 61 55 55 52 47 37 32 46 72 102 115 119 119
203 201 201 197 200 201 199 195 192 187 185 188 185 183 184 179 172 167 165 162 150 142 138 135 131 111 102 100 92 70 58 54 53 47 49 46 36 29 40 68 90 122 133
208 202 201 201 202 203 200 196 193 188 190 190 187 189 189 185 179 176 173 162 155 151 150 148 142 128 129 118 101 79 58 48 40 45 51 48 42 37 26 38 50 66 140
212 206 204 204 205 201 197 194 194 195 196 194 193 195 191 189 185 181 174 166 163 159 161 157 146 120 131 132 109 83 61 46 32 34 41 37 39 41 38 34 28 14 55
211 207 206 206 205 199 198 199 200 203 199 198 197 196 194 192 188 186 178 172 174 176 174 161 145 139 139 140 113 86 3 342 257 233 228 247 248 250 55 56 54 25 346
214 211 209 208 204 203 205 203 200 195 195 196 194 197 197 195 191 190 184 182 183 176 170 172 160 157 160 179 151 141 213 265 240 220 214 220 228 225 217 208 204 182 197
219 214 209 208 205 204 201 187 171 167 170 190 198 199 199 198 195 193 191 186 185 183 185 185 181 173 174 190 193 166 172 216 200 226 225 222 218 223 223 214 217 213 204
228 219 210 205 203 201 193 191 191 198 205 205 197 197 195 197 197 197 193 191 188 189 191 191 191 190 172 182 201 227 211 152 171 211 240 225 219 225 222 217 214 213 209
236 214 206 195 196 194 193 198 201 209 212 191 179 189 194 196 198 197 195 194 193 194 194 191 192 195 195 190 184 173 177 192 186 183 228 220 224 227 220 217 216 217 213
338 118 158 170 187 186 191 199 204 208 199 181 186 194 196 194 197 199 197 198 198 197 198 197 197 200 204 201 196 186 175 178 193 194 215 215 223 223 213 215 218 220 215